Location: Seattle
(47.6064°N, 122.3308°W)
Time: 04:53:16
(UTC-07:00)

Tiros 1 - Pass Details

Date: 02 August 2021
Orbit: 630 x 663 km, 48.4° (Epoch: 25 September)

Event Time Altitude Azimuth Distance (km) Brightness Sun altitude
Rises 23:00:03 0° 285° (WNW) 2,973 11.3 -18.2°
Reaches altitude 10° 23:02:25 10° 282° (WNW) 2,055 10.4 -18.5°
Maximum altitude 23:07:07 69° 201° (SSW) 694 7.1 -18.9°
Enters shadow 23:08:37 41° 132° (SE) 927 7.5 -19.0°
